Вернуться в каталог

STARLINK-33896

АктивенСвязьVLEO
NORAD 63861·PAYLOAD·🇺🇸 United States

Запущен May 7, 2025 с Cape Canaveral Space Force Station

Loading…

Ближайшие Пролёты (ближайшие 24 часа)

TLE

СвежийSource: CelesTrak SupGP

Эпоха: Sep 15, 2026, 02:55 UTC

1 63861C 25093AB  26258.12201389 -.00002133  00000+0 -77241-4 0  2585
2 63861  43.0016  88.2109 0001739 275.2795  15.1689 15.27587704    12

Отслеживайте STARLINK-33896 в реальном времени с AllMySat

Download on the App Store